COSMOS 252 DEB, 3554

Orbit data source: Space-Track

COSMOS 252 DEB, 3554 is space debris in LEO originally from a launch on Fri, 01 Nov 1968 UTC launched from the Tyuratam Missile And Space Complex (TTMTR). Debris objects in space refer to the collection of defunct objects orbiting the Earth. Examples of debris include non-operational satellites, rocket bodies, and fragments generated from explosions, collisions, or faulty payload assembly.

Loading next visibility...
Identifier
3554, 1968-097G
Orbit
LEO
Country
Flag of CISCIS
Related business
Manufacturer
Unknown
Mission
Spacecraft
Bus & Motor
Unknown
Mass
Unknown
Launch date (UTC)
1968-11-01 (57 years ago)
Launch vehicle
Unknown
Launch site
Tyuratam Missile And Space Complex (TTMTR)
Object type
Payload
Rocket body
Debris
Shape & HBR
Unknown shape, 0.1 m
Radar Cross Section
Small (<0.1 m²)

Expand to show TLE details & history
Last TLE update: 9 hours ago

TLE from 9 hours ago
0 COSMOS 252 DEB
1  3554U 68097G   26121.93420604  .00001485  00000-0  40657-3 0  9990
2  3554  62.2704 195.6207 0533620 291.2713  63.2151 13.90283630819083
Epoch: 2026-05-01T22:25Z
TLE epoch observation values (Epoch: 2026-05-01T22:25:15.401Z)
Latitude
-0.00007°
Longitude
-0.55285°
Altitude
770.83 km
Speed
7.55 km/s
True Right ascension
13h 02m 28s
True Declination
0° 00' 00"
Sunlit
Object was in full shadow at epoch
Visualization orbit readout
Latitude
Unknown
Longitude
Unknown
Altitude
Unknown
Speed
Unknown
Apparent Right ascension
Unknown
Apparent Declination
Unknown
Sunlit
N/A
Visualization observer readout
Local Sidereal Time
14:41:34
Azimuth
Unknown
Elevation
Unknown
Doppler factor
Unknown
Orbital elements
Apogee altitude
1,316.375 km
Perigee altitude
536.786 km
Semi-major axis
7,304.718 km
Eccentricity
0.05336
Inclination
62.2704°
RAAN
195.6207°
Arg. of periapsis
291.2713°
True anomaly
68.83374°
Mean anomaly
63.2151°
Eccentric anomaly
66.00837°
Mean motion
3.47647 °/min
Orbital period
103.55 mins
BSTAR
0.00040657
Loading maneuver chart data...
Computing Atmospheric mass density...
Loading historical data...
Loading historical data...
Loading historical data...
Loading historical data...
Loading historical data...
Loading historical data...
Loading historical data...

Documentation

Showing up to 5 results
|